Wind_Speed
17 17 16 15 15 15 15 16 17 18 18 19 20 21 22 22 23 23 23 23 24 25 25 24 24 24 24 24 23 23 23 23 23 23 23 22 21 21 21 21 22 22
17 17 16 16 16 16 16 17 18 19 20 21 22 23 23 24 25 25 25 24 25 25 26 26 26 25 25 25 24 24 24 24 24 24 24 23 22 22 22 22 23 23
17 16 16 17 17 18 18 18 19 20 20 21 22 23 24 24 25 26 26 26 26 27 28 29 29 28 26 25 25 24 24 24 25 26 26 25 24 23 23 23 24 24
16 16 17 18 18 18 19 20 21 21 21 22 23 24 24 25 25 26 27 27 28 29 30 32 32 31 29 27 26 25 24 25 26 27 28 27 25 24 24 24 25 25
17 17 17 18 18 18 19 20 21 22 23 24 25 25 26 27 28 29 29 29 30 31 33 35 35 33 31 29 28 26 25 25 27 28 29 28 26 25 25 25 26 27
16 16 16 17 17 18 19 20 22 23 25 26 27 26 27 30 33 33 32 33 34 34 35 36 36 33 31 31 30 27 26 26 27 28 30 29 28 26 26 27 28 28
14 14 15 15 16 17 18 20 22 24 25 27 28 28 29 31 33 35 35 36 36 37 37 37 36 34 32 32 30 28 27 27 27 28 30 30 28 27 28 28 28 29
14 14 15 16 17 18 19 21 23 25 27 28 30 32 33 34 35 36 36 37 38 38 39 40 39 35 33 32 31 29 28 27 27 29 30 29 29 29 29 29 29 30
15 17 18 19 20 21 22 22 24 27 29 32 34 35 36 37 38 38 38 37 38 39 40 40 39 35 32 32 32 31 29 29 29 30 30 29 30 31 30 29 29 31
17 19 20 21 23 24 24 24 26 28 31 33 34 35 36 37 37 38 39 39 40 41 39 38 35 33 33 34 34 34 32 30 31 31 30 29 31 32 31 30 30 32
18 19 20 23 24 24 24 25 25 27 30 32 33 34 36 37 37 36 38 40 41 40 37 35 34 33 34 36 35 35 33 32 33 33 31 31 32 33 31 31 32 32
18 18 19 21 23 23 23 25 26 27 29 31 33 34 34 35 34 33 34 37 38 35 32 32 33 32 33 35 34 33 33 33 33 33 33 32 32 32 32 33 33 32
17 17 18 20 23 23 23 25 27 27 28 30 32 33 31 31 31 30 31 34 34 30 27 27 29 30 32 33 32 32 33 32 31 30 30 31 31 32 34 33 32 32
17 18 19 21 24 25 24 26 28 27 27 29 31 31 30 30 30 30 31 32 31 29 27 29 31 30 30 31 32 33 33 31 29 28 27 29 31 33 33 32 31 32
19 21 23 24 26 28 27 28 30 30 29 29 30 30 30 31 31 30 31 31 31 31 32 33 31 29 28 30 32 33 32 30 28 26 26 29 32 33 33 32 32 33
23 25 25 26 27 29 30 31 33 33 32 30 31 30 30 30 31 30 31 32 33 33 34 32 28 26 27 30 31 31 31 29 27 26 28 31 32 33 33 33 33 34
27 28 27 27 28 31 33 34 35 35 33 32 31 30 28 30 31 31 30 32 34 33 31 28 25 25 28 30 30 31 32 30 27 28 31 33 33 33 33 34 35 35
30 31 29 29 30 33 35 37 38 37 35 34 33 29 27 29 31 31 30 32 33 31 27 25 24 25 28 31 31 32 32 29 29 31 33 34 33 33 33 34 35 35
32 33 31 31 34 36 37 39 39 37 35 35 34 31 29 29 29 29 28 30 31 29 27 26 26 27 31 32 32 32 31 30 31 33 34 34 33 33 34 34 35 36
33 34 33 35 37 38 39 40 39 37 35 36 35 33 31 30 30 28 28 29 29 28 28 29 29 31 32 32 32 32 32 33 33 33 33 33 33 34 34 35 36 38
34 35 36 38 39 39 40 41 40 38 36 36 35 34 32 33 33 31 29 29 30 29 29 31 32 33 33 32 32 33 33 34 33 32 32 33 33 34 35 36 38 39
37 38 39 41 41 41 42 42 42 41 38 36 36 35 33 33 33 30 28 29 30 29 30 32 33 34 33 31 29 29 30 31 31 32 32 32 33 34 35 37 38 39
39 41 42 43 43 43 44 44 44 43 39 36 35 35 34 34 33 30 28 29 30 30 31 33 34 34 31 27 25 26 27 29 30 31 32 32 34 34 35 36 37 39
43 44 45 45 45 45 46 46 47 45 39 35 34 34 34 34 33 31 29 29 30 30 31 32 33 32 29 26 26 27 28 30 30 31 32 33 33 33 34 36 39 42
46 46 46 46 47 48 49 49 48 44 37 33 33 34 34 33 32 31 31 30 30 30 31 32 32 30 28 28 30 31 31 31 30 30 31 32 32 34 36 39 42 44
47 48 48 48 48 51 51 48 45 40 35 32 33 33 33 32 32 32 32 31 30 29 30 31 32 31 30 32 35 34 31 27 26 27 30 32 34 36 38 41 43 44
Wind_Direction
271 272 276 278 281 284 288 292 296 301 304 306 307 307 308 306 304 302 301 299 298 299 302 303 304 303 301 300 299 297 293 291 291 292 292 290 289 291 292 293 295 296
268 269 272 275 280 283 287 293 299 303 306 308 309 310 309 307 305 304 303 301 299 298 298 299 300 301 299 297 297 298 295 292 290 291 293 293 291 291 292 294 295 296
264 266 270 275 280 285 292 299 303 304 305 306 308 308 305 303 303 303 302 302 302 300 297 295 295 297 296 295 295 295 294 292 289 290 293 294 291 290 293 294 295 297
259 264 271 277 282 290 298 305 306 304 303 304 305 302 300 299 300 301 301 301 302 302 300 297 294 293 292 292 291 290 290 290 289 288 291 293 291 291 293 295 296 297
260 267 274 279 287 296 302 306 305 302 301 301 300 300 302 303 303 302 300 297 297 299 300 299 297 292 289 290 290 287 285 286 287 289 291 292 291 292 294 295 295 296
264 271 278 286 294 300 302 302 300 297 297 298 298 302 305 304 304 303 300 297 297 299 299 300 297 291 288 290 289 286 284 283 286 289 291 291 291 292 294 292 292 294
269 276 286 293 296 297 298 299 298 297 299 300 301 305 306 303 301 301 300 299 300 300 300 300 297 289 284 286 286 284 283 282 284 287 288 289 289 290 291 290 291 295
273 280 287 291 292 294 296 298 301 303 306 308 308 310 311 308 303 300 299 298 298 298 297 299 298 289 279 281 283 281 282 282 282 284 285 285 285 287 289 289 292 295
276 280 284 287 289 291 293 299 307 308 309 312 312 313 311 307 303 301 299 298 298 298 295 296 299 291 277 278 281 280 281 282 280 281 283 282 281 285 287 288 291 292
278 281 286 289 291 293 298 306 313 312 308 310 311 311 310 308 306 305 303 302 300 298 293 291 296 292 280 279 282 280 281 284 281 280 281 278 277 281 285 287 291 291
281 286 290 294 298 306 313 317 319 316 313 313 313 311 309 308 308 309 309 306 299 294 291 288 291 290 283 282 283 280 282 286 283 278 276 273 273 279 285 289 291 289
284 288 293 299 304 313 321 322 321 320 320 319 315 311 309 307 308 310 313 314 305 295 288 288 290 288 283 284 283 281 284 287 283 277 272 269 272 279 287 290 289 286
284 288 294 302 306 312 321 322 320 321 322 319 316 314 313 313 313 312 314 319 317 305 291 289 294 290 284 284 284 284 286 285 282 279 271 268 273 282 287 287 285 284
289 292 297 302 305 310 318 319 318 320 321 319 317 316 314 315 317 315 315 317 318 311 299 293 296 294 286 285 286 286 286 283 280 276 270 271 279 284 285 284 283 284
299 300 301 303 304 309 314 316 315 317 319 320 319 317 313 313 316 317 315 312 311 309 303 297 296 292 284 282 282 282 283 281 276 274 275 280 284 283 282 282 282 283
304 305 305 304 306 311 315 315 315 316 318 319 318 315 311 311 314 315 312 308 306 305 304 300 295 287 279 277 277 279 280 277 273 276 282 285 284 282 282 282 283 285
304 306 305 304 308 314 315 314 315 315 316 316 315 312 308 308 311 311 307 306 305 304 301 297 290 282 278 276 275 277 277 273 274 281 285 285 283 282 282 283 285 287
304 305 303 304 309 313 313 314 314 314 314 315 315 311 303 301 304 304 302 303 305 303 294 285 284 286 284 282 280 277 274 273 277 283 285 285 283 281 281 283 286 288
304 305 303 304 307 310 312 313 313 313 312 312 313 310 302 297 298 297 297 299 302 299 286 279 285 290 289 287 283 277 274 277 282 284 284 284 283 281 282 285 286 287
303 304 304 304 306 307 309 311 312 312 310 309 309 308 303 296 290 289 292 295 297 294 284 281 285 288 287 286 283 278 279 283 285 284 284 284 282 282 283 284 285 287
301 301 302 304 305 305 307 309 310 310 308 306 306 304 302 296 290 289 293 294 293 291 285 283 284 285 285 284 281 281 282 284 285 284 283 282 281 281 282 283 285 290
301 300 301 304 305 304 305 308 309 309 306 303 302 301 300 296 292 293 294 292 291 289 285 283 282 282 281 279 279 281 284 285 285 285 283 281 280 280 281 284 288 294
301 299 301 303 304 303 304 306 308 307 303 299 298 298 296 294 293 296 296 292 289 287 284 282 281 278 274 274 278 283 286 288 288 287 285 283 282 282 284 287 292 297
302 300 301 302 302 302 302 303 306 305 300 295 295 295 294 293 295 297 296 292 289 286 284 282 278 273 270 274 281 286 288 289 288 286 284 282 282 284 286 289 293 297
301 300 301 301 300 300 300 300 303 302 296 292 293 292 292 293 294 295 294 293 292 290 286 280 274 269 270 276 282 286 288 288 285 282 281 281 283 285 287 289 293 298
299 298 299 298 299 299 298 298 299 297 292 290 291 290 291 292 293 292 292 294 296 293 285 276 269 266 269 277 282 285 286 284 280 278 279 282 285 286 288 291 295 301
Height
5912 5912 5912 5912 5912 5911 5911 5911 5910 5910 5909 5909 5908 5907 5906 5905 5905 5904 5903 5902 5900 5899 5898 5897 5896 5895 5895 5894 5894 5893 5892 5891 5890 5890 5888 5887 5886 5885 5884 5883 5882 5881
5910 5910 5910 5910 5910 5909 5909 5909 5908 5908 5907 5906 5905 5904 5903 5902 5901 5900 5899 5898 5897 5896 5895 5893 5893 5892 5891 5891 5890 5890 5889 5888 5887 5886 5885 5884 5883 5882 5881 5880 5879 5878
5907 5908 5908 5908 5908 5907 5907 5907 5906 5905 5905 5904 5903 5902 5901 5900 5898 5897 5896 5895 5894 5893 5891 5890 5889 5889 5888 5888 5887 5886 5886 5884 5883 5883 5882 5881 5879 5878 5878 5877 5876 5875
5905 5906 5906 5906 5905 5905 5905 5904 5903 5902 5901 5900 5900 5899 5898 5896 5895 5894 5893 5891 5890 5889 5888 5886 5886 5885 5884 5884 5883 5883 5882 5881 5880 5879 5878 5877 5876 5875 5875 5874 5872 5871
5903 5904 5904 5904 5904 5903 5902 5901 5900 5899 5898 5897 5896 5895 5894 5893 5891 5891 5890 5888 5887 5886 5884 5883 5882 5881 5880 5879 5879 5879 5878 5877 5876 5875 5875 5874 5873 5872 5871 5870 5868 5867
5901 5902 5902 5902 5901 5900 5899 5898 5897 5895 5894 5893 5892 5891 5890 5889 5887 5886 5886 5884 5883 5882 5881 5880 5878 5877 5876 5875 5875 5874 5874 5873 5873 5872 5871 5870 5869 5869 5868 5866 5865 5863
5899 5900 5900 5899 5898 5897 5896 5895 5894 5893 5891 5890 5889 5887 5886 5886 5884 5883 5881 5880 5879 5878 5877 5876 5874 5873 5872 5871 5870 5870 5869 5869 5869 5868 5867 5867 5866 5865 5864 5863 5861 5859
5897 5897 5896 5895 5895 5894 5893 5893 5892 5891 5889 5888 5886 5885 5884 5882 5881 5880 5878 5877 5875 5874 5872 5871 5870 5868 5867 5866 5865 5865 5864 5864 5864 5864 5863 5863 5862 5861 5860 5859 5857 5856
5895 5894 5893 5893 5892 5891 5891 5890 5890 5888 5887 5885 5884 5882 5880 5878 5877 5876 5874 5873 5871 5870 5868 5866 5865 5863 5862 5862 5861 5860 5859 5859 5859 5859 5859 5858 5857 5856 5855 5854 5853 5852
5892 5891 5890 5890 5889 5889 5889 5888 5887 5885 5883 5882 5880 5878 5876 5874 5873 5871 5869 5867 5866 5864 5863 5861 5860 5858 5858 5857 5856 5855 5855 5855 5854 5854 5854 5853 5852 5851 5850 5850 5849 5848
5889 5888 5887 5887 5886 5886 5886 5885 5884 5882 5879 5878 5877 5875 5873 5870 5868 5867 5865 5862 5860 5858 5857 5856 5855 5854 5853 5853 5852 5851 5851 5851 5850 5849 5848 5847 5846 5846 5846 5845 5845 5844
5886 5885 5885 5884 5883 5883 5882 5881 5880 5879 5877 5875 5873 5871 5869 5867 5865 5863 5861 5858 5854 5852 5851 5851 5850 5849 5849 5848 5848 5848 5847 5846 5845 5843 5842 5842 5842 5842 5842 5841 5840 5840
5883 5883 5882 5881 5880 5880 5880 5878 5876 5876 5874 5872 5870 5868 5866 5864 5862 5860 5857 5854 5850 5848 5847 5847 5846 5845 5844 5844 5844 5844 5843 5842 5840 5839 5839 5839 5839 5839 5838 5837 5836 5835
5880 5880 5879 5878 5877 5877 5877 5876 5874 5873 5872 5870 5867 5865 5863 5860 5858 5856 5854 5851 5848 5846 5845 5843 5842 5841 5840 5840 5840 5840 5839 5838 5837 5836 5836 5836 5836 5835 5834 5833 5832 5831
5878 5877 5876 5875 5874 5874 5874 5872 5871 5869 5868 5867 5864 5861 5859 5857 5854 5852 5850 5848 5846 5844 5842 5839 5838 5837 5835 5835 5836 5836 5835 5834 5833 5833 5833 5833 5831 5830 5829 5828 5827 5826
5874 5874 5873 5872 5871 5870 5869 5868 5867 5865 5864 5862 5860 5858 5855 5852 5850 5848 5846 5843 5842 5840 5838 5836 5834 5832 5831 5830 5831 5831 5831 5830 5830 5829 5829 5828 5826 5825 5824 5824 5823 5822
5870 5870 5869 5869 5867 5866 5864 5863 5863 5861 5860 5858 5856 5854 5851 5848 5846 5844 5842 5839 5837 5836 5834 5832 5830 5828 5827 5826 5826 5827 5826 5826 5826 5825 5824 5823 5822 5821 5820 5819 5818 5817
5866 5866 5866 5865 5863 5862 5860 5858 5857 5856 5854 5853 5851 5849 5847 5845 5843 5840 5838 5835 5833 5831 5830 5828 5826 5825 5823 5822 5822 5822 5822 5821 5821 5820 5819 5818 5818 5817 5816 5815 5814 5813
5862 5862 5862 5861 5859 5858 5856 5854 5852 5851 5849 5847 5846 5845 5843 5841 5838 5836 5834 5831 5829 5828 5826 5824 5823 5821 5819 5818 5818 5818 5817 5817 5817 5816 5815 5814 5814 5813 5812 5811 5810 5808
5859 5858 5857 5856 5855 5853 5851 5850 5848 5846 5844 5843 5841 5840 5838 5836 5833 5831 5829 5827 5825 5824 5822 5821 5819 5817 5815 5814 5814 5813 5813 5813 5812 5811 5810 5810 5809 5809 5808 5806 5805 5803
5855 5854 5853 5852 5851 5849 5847 5845 5843 5841 5839 5838 5836 5835 5833 5830 5828 5827 5825 5823 5821 5820 5818 5816 5815 5813 5811 5810 5809 5809 5809 5808 5808 5806 5806 5805 5805 5804 5803 5801 5800 5798
5851 5850 5849 5847 5846 5844 5842 5840 5838 5836 5834 5832 5831 5830 5828 5826 5824 5823 5821 5818 5816 5815 5814 5812 5811 5809 5807 5806 5805 5805 5805 5804 5803 5802 5801 5801 5800 5799 5798 5797 5796 5794
5846 5845 5844 5842 5840 5839 5837 5835 5833 5831 5829 5827 5826 5824 5822 5821 5819 5817 5816 5814 5812 5811 5809 5808 5806 5805 5803 5802 5802 5802 5801 5800 5799 5798 5797 5797 5796 5795 5794 5792 5791 5789
5841 5840 5838 5836 5835 5833 5831 5829 5827 5825 5823 5821 5820 5818 5817 5815 5813 5811 5811 5810 5808 5806 5805 5804 5802 5800 5800 5799 5799 5798 5797 5796 5796 5794 5793 5792 5791 5790 5789 5788 5786 5784
5836 5834 5832 5831 5829 5826 5824 5823 5821 5819 5817 5816 5815 5813 5811 5810 5808 5807 5806 5805 5804 5802 5800 5799 5798 5797 5796 5796 5794 5794 5793 5792 5791 5790 5789 5788 5786 5785 5784 5782 5780 5779
5830 5829 5826 5825 5823 5820 5818 5817 5815 5813 5811 5810 5809 5808 5806 5805 5804 5803 5802 5801 5800 5798 5796 5794 5793 5792 5792 5791 5789 5789 5788 5787 5786 5785 5784 5783 5781 5780 5778 5776 5774 5773